User: anonymous   Login
Location: Unspecified
(0.0000°N, 0.0000°E)
Time: 14:52:14
(UTC+00:00)
Language:

SINAH 1 - Orbit

View from above orbital plane
View from above orbital plane
View from above satellite
View from above satellite

Ground track
Ground track

The orbit data is extracted from the following two-line orbital elements,

1 28893U 05043D   17351.85057078  .00000010  00000-0  11054-4 0  9995
2 28893  97.8959 141.4341 0013997 296.1650  63.8112 14.61459454647275
Epoch (UTC): 17 December 2017 20:24:49
Eccentricity: 0.0013997
inclination: 97.8959°
perigee height: 678 km
apogee height: 698 km
right ascension of ascending node: 141.4341°
argument of perigee: 296.1650°
revolutions per day: 14.61459454
mean anomaly at epoch: 63.8112°
orbit number at epoch: 64727

The dashed part of the orbit path shows where the satellite is in the earth's shadow,  

DLR